WZZ95CH LBSF-LEXJ

Flight info

Callsign WZZ95CH
Flight time 3h 9m
Altitude 36000
Route OGOTA T228 UTEKA DCT SMI DCT TUVAR DCT TEBLI DCT ROTAR/N0434F370 DCT RONOP/N0434F380 DCT GIGUS DCT BALSI DCT GIPNO DCT RUSIT/N0433F370 DCT ESIDA DCT LERGA DCT MINSO DCT NARAK DCT AGN DCT DIGPO DCT ERAKI DCT PPN/N0431F380 DCT MALOB DCT CEGAM M601 BLV
Aircraft A20N/M-SDE3FGHIRWY/LB1

Departure

Time 2026-04-25 02:55
Airport Sofia Airport (LBSF)

Arrival

Time 2026-04-25 06:05
Airport Seve Ballesteros-Santander Airport (LEXJ)
Time Latitude Longitude Altitude Speed Heading
2026-04-25 02:28 42.69101 23.40204 1776 ft 0 kts 196°
2026-04-25 02:48 42.69100 23.40204 1777 ft 1 kts 197°
2026-04-25 02:48 42.69074 23.40196 1774 ft 6 kts 189°
2026-04-25 02:49 42.69046 23.40241 1770 ft 9 kts 105°
2026-04-25 02:49 42.69075 23.40309 1770 ft 11 kts 26°
2026-04-25 02:49 42.69158 23.40349 1765 ft 14 kts 18°
2026-04-25 02:49 42.69266 23.40382 1767 ft 17 kts
2026-04-25 02:50 42.69383 23.40437 1770 ft 19 kts 12°
2026-04-25 02:50 42.69487 23.40498 1776 ft 11 kts 12°
2026-04-25 02:50 42.69526 23.40573 1766 ft 11 kts 91°
2026-04-25 02:50 42.69520 23.40695 1773 ft 15 kts 96°
2026-04-25 02:51 42.69511 23.40852 1773 ft 18 kts 94°
2026-04-25 02:51 42.69500 23.41039 1775 ft 21 kts 94°
2026-04-25 02:51 42.69493 23.41180 1766 ft 23 kts 94°
2026-04-25 02:51 42.69477 23.41406 1768 ft 25 kts 95°
2026-04-25 02:52 42.69465 23.41655 1771 ft 27 kts 94°
2026-04-25 02:52 42.69447 23.41919 1769 ft 29 kts 95°
2026-04-25 02:52 42.69431 23.42195 1775 ft 30 kts 94°
2026-04-25 02:52 42.69413 23.42489 1776 ft 32 kts 95°
2026-04-25 02:53 42.69397 23.42794 1777 ft 33 kts 94°
2026-04-25 02:53 42.69375 23.43111 1775 ft 34 kts 95°
2026-04-25 02:53 42.69356 23.43433 1776 ft 35 kts 94°
2026-04-25 02:53 42.69339 23.43765 1776 ft 35 kts 90°
2026-04-25 02:54 42.69351 23.43920 1773 ft 12 kts 48°
2026-04-25 02:54 42.69437 23.43954 1775 ft 15 kts
2026-04-25 02:54 42.69512 23.43931 1776 ft 0 kts 300°
2026-04-25 02:54 42.69516 23.43904 1776 ft 19 kts 281°
2026-04-25 02:55 42.69562 23.43212 1776 ft 121 kts 272°
2026-04-25 02:55 42.69640 23.41745 1797 ft 187 kts 271°
2026-04-25 02:55 42.69707 23.40081 3024 ft 165 kts 276°
2026-04-25 02:55 42.69489 23.38519 3968 ft 177 kts 242°
2026-04-25 02:56 42.68573 23.37494 4269 ft 168 kts 198°
2026-04-25 02:56 42.67395 23.37741 4384 ft 189 kts 148°
2026-04-25 02:56 42.66615 23.39206 4646 ft 206 kts 105°
2026-04-25 02:56 42.66750 23.41216 4979 ft 228 kts 66°
2026-04-25 02:57 42.67553 23.43075 5436 ft 245 kts 57°
2026-04-25 02:57 42.68409 23.45230 6138 ft 252 kts 69°
2026-04-25 02:57 42.68873 23.47534 6866 ft 256 kts 81°
2026-04-25 02:57 42.69019 23.49951 7564 ft 260 kts 89°
2026-04-25 02:58 42.68973 23.52437 8271 ft 264 kts 93°
2026-04-25 02:58 42.68841 23.54928 8973 ft 267 kts 94°
2026-04-25 02:58 42.69052 23.57449 9640 ft 268 kts 68°
2026-04-25 02:58 42.70034 23.59568 9933 ft 267 kts 42°
2026-04-25 02:59 42.71599 23.60849 10001 ft 266 kts 15°
2026-04-25 02:59 42.73444 23.60995 10000 ft 263 kts 347°
2026-04-25 02:59 42.75096 23.60059 10002 ft 264 kts 330°
2026-04-25 02:59 42.76780 23.58738 9999 ft 284 kts 329°
2026-04-25 03:00 42.78506 23.57404 9998 ft 283 kts 330°
2026-04-25 03:00 42.80230 23.56140 9998 ft 283 kts 331°
2026-04-25 03:00 42.81984 23.54905 10000 ft 283 kts 332°
2026-04-25 03:00 42.83742 23.53700 9998 ft 283 kts 333°
2026-04-25 03:01 42.85512 23.52500 9996 ft 283 kts 333°
2026-04-25 03:01 42.87339 23.51461 10125 ft 287 kts 337°
2026-04-25 03:01 42.89264 23.50415 10337 ft 310 kts 337°
2026-04-25 03:01 42.91325 23.49282 10922 ft 330 kts 337°
2026-04-25 03:02 42.93492 23.48088 11896 ft 337 kts 337°
2026-04-25 03:02 42.95663 23.46890 12919 ft 342 kts 338°
2026-04-25 03:02 42.97901 23.45656 13936 ft 348 kts 338°
2026-04-25 03:02 43.00156 23.44413 14857 ft 352 kts 338°
2026-04-25 03:03 43.02446 23.43149 15840 ft 355 kts 338°
2026-04-25 03:03 43.04734 23.41886 16776 ft 359 kts 338°
2026-04-25 03:03 43.07093 23.40584 17730 ft 363 kts 339°
2026-04-25 03:03 43.09446 23.39283 18604 ft 367 kts 339°
2026-04-25 03:04 43.11813 23.37974 19386 ft 370 kts 339°
2026-04-25 03:04 43.14229 23.36637 20179 ft 374 kts 339°
2026-04-25 03:04 43.16626 23.35310 20945 ft 378 kts 339°
2026-04-25 03:05 43.21395 23.32077 22511 ft 388 kts 328°
2026-04-25 03:05 43.23556 23.29808 23252 ft 394 kts 320°
2026-04-25 03:05 43.25573 23.27164 23938 ft 399 kts 318°
2026-04-25 03:05 43.27579 23.24506 24604 ft 402 kts 318°
2026-04-25 03:06 43.29601 23.21838 25243 ft 405 kts 318°
2026-04-25 03:06 43.31618 23.19177 25874 ft 408 kts 318°
2026-04-25 03:06 43.33671 23.16464 26455 ft 411 kts 318°
2026-04-25 03:06 43.35738 23.13728 27048 ft 414 kts 318°
2026-04-25 03:07 43.37833 23.10954 27632 ft 417 kts 318°
2026-04-25 03:07 43.39914 23.08192 28178 ft 420 kts 318°
2026-04-25 03:07 43.42031 23.05380 28718 ft 423 kts 318°
2026-04-25 03:07 43.44166 23.02541 29231 ft 426 kts 318°
2026-04-25 03:08 43.46307 22.99692 29728 ft 429 kts 318°
2026-04-25 03:08 43.48455 22.96830 30211 ft 432 kts 318°
2026-04-25 03:08 43.50624 22.93937 30666 ft 434 kts 318°
2026-04-25 03:08 43.52805 22.91027 31104 ft 437 kts 318°
2026-04-25 03:09 43.54969 22.88134 31606 ft 437 kts 318°
2026-04-25 03:09 43.57174 22.85183 32196 ft 435 kts 318°
2026-04-25 03:09 43.59326 22.82300 32786 ft 434 kts 318°
2026-04-25 03:09 43.61490 22.79404 33359 ft 432 kts 319°
2026-04-25 03:10 43.63653 22.76511 33931 ft 430 kts 319°
2026-04-25 03:10 43.65790 22.73647 34405 ft 429 kts 319°
2026-04-25 03:10 43.67858 22.70865 34854 ft 428 kts 319°
2026-04-25 03:10 43.70042 22.67920 35318 ft 426 kts 319°
2026-04-25 03:11 43.72158 22.65072 35739 ft 426 kts 319°
2026-04-25 03:11 43.74259 22.62233 35986 ft 425 kts 319°
2026-04-25 03:11 43.78475 22.56534 36047 ft 422 kts 319°
2026-04-25 03:12 43.82683 22.50826 36046 ft 423 kts 319°
2026-04-25 03:12 43.86893 22.45110 36050 ft 423 kts 319°
2026-04-25 03:13 43.90842 22.39042 36055 ft 426 kts 310°
2026-04-25 03:13 43.93996 22.32065 36057 ft 431 kts 302°
2026-04-25 03:14 43.96831 22.24768 36060 ft 430 kts 302°
2026-04-25 03:14 43.99701 22.17419 36063 ft 430 kts 302°
2026-04-25 03:15 44.02526 22.10132 36063 ft 430 kts 302°
2026-04-25 03:15 44.05369 22.02771 36064 ft 430 kts 302°
2026-04-25 03:16 44.08189 21.95449 36065 ft 430 kts 302°
2026-04-25 03:16 44.11016 21.88088 36064 ft 430 kts 302°
2026-04-25 03:17 44.13836 21.80729 36071 ft 431 kts 302°
2026-04-25 03:17 44.16647 21.73374 36073 ft 431 kts 302°
2026-04-25 03:18 44.19458 21.65999 36074 ft 431 kts 302°
2026-04-25 03:18 44.22276 21.58584 36071 ft 431 kts 302°
2026-04-25 03:19 44.25090 21.51162 36067 ft 431 kts 302°
2026-04-25 03:19 44.27878 21.43787 36060 ft 431 kts 302°
2026-04-25 03:20 44.30666 21.36393 36060 ft 431 kts 302°
2026-04-25 03:20 44.33456 21.28974 36058 ft 430 kts 302°
2026-04-25 03:21 44.36227 21.21584 36053 ft 431 kts 301°
2026-04-25 03:21 44.39004 21.14160 36051 ft 430 kts 301°
2026-04-25 03:22 44.41768 21.06753 36049 ft 430 kts 301°
2026-04-25 03:22 44.44075 21.00554 36050 ft 431 kts 301°
2026-04-25 03:23 44.46844 20.93094 36052 ft 431 kts 301°
2026-04-25 03:23 44.49592 20.85669 36045 ft 431 kts 301°
2026-04-25 03:24 44.52359 20.78177 36051 ft 431 kts 301°
2026-04-25 03:24 44.54615 20.72052 36055 ft 431 kts 301°
2026-04-25 03:25 44.57360 20.64580 36053 ft 432 kts 301°
2026-04-25 03:25 44.60103 20.57091 36054 ft 432 kts 301°
2026-04-25 03:26 44.62853 20.49564 36053 ft 432 kts 301°
2026-04-25 03:26 44.65579 20.42085 36049 ft 432 kts 301°
2026-04-25 03:27 44.68312 20.34561 36052 ft 432 kts 300°
2026-04-25 03:27 44.71023 20.27079 36051 ft 432 kts 300°
2026-04-25 03:28 44.73750 20.19532 36054 ft 432 kts 300°
2026-04-25 03:28 44.76463 20.12006 36051 ft 432 kts 300°
2026-04-25 03:29 44.79184 20.04444 36049 ft 431 kts 300°
2026-04-25 03:29 44.81899 19.96905 36050 ft 431 kts 300°
2026-04-25 03:30 44.84601 19.89364 36050 ft 431 kts 300°
2026-04-25 03:30 44.87286 19.81826 36047 ft 431 kts 300°
2026-04-25 03:31 44.89977 19.74247 36045 ft 431 kts 300°
2026-04-25 03:31 44.92651 19.66694 36045 ft 431 kts 300°
2026-04-25 03:32 44.95320 19.59135 36045 ft 431 kts 300°
2026-04-25 03:32 44.97993 19.51547 36048 ft 431 kts 300°
2026-04-25 03:33 45.00647 19.44005 36047 ft 431 kts 299°
2026-04-25 03:33 45.03183 19.36298 36041 ft 431 kts 298°
2026-04-25 03:34 45.05765 19.28616 36042 ft 431 kts 298°
2026-04-25 03:34 45.08330 19.20921 36044 ft 432 kts 298°
2026-04-25 03:35 45.10838 19.13224 36043 ft 433 kts 295°
2026-04-25 03:35 45.12538 19.04997 36039 ft 438 kts 283°
2026-04-25 03:36 45.13124 18.96430 36041 ft 441 kts 276°
2026-04-25 03:36 45.13479 18.87739 36044 ft 441 kts 276°
2026-04-25 03:37 45.13832 18.79039 36044 ft 441 kts 276°
2026-04-25 03:37 45.14170 18.70389 36048 ft 441 kts 276°
2026-04-25 03:38 45.14500 18.61688 36050 ft 441 kts 276°
2026-04-25 03:38 45.14825 18.52980 36051 ft 441 kts 276°
2026-04-25 03:39 45.15141 18.44308 36054 ft 441 kts 276°
2026-04-25 03:39 45.15452 18.35609 36054 ft 441 kts 276°
2026-04-25 03:40 45.15755 18.26958 36053 ft 441 kts 275°
2026-04-25 03:40 45.16053 18.18255 36056 ft 441 kts 275°
2026-04-25 03:41 45.16342 18.09602 36054 ft 441 kts 275°
2026-04-25 03:41 45.16625 18.00935 36055 ft 441 kts 275°
2026-04-25 03:42 45.16902 17.92287 36059 ft 441 kts 275°
2026-04-25 03:42 45.17173 17.83590 36055 ft 441 kts 275°
2026-04-25 03:43 45.17437 17.74907 36052 ft 441 kts 275°
2026-04-25 03:43 45.17694 17.66237 36058 ft 441 kts 275°
2026-04-25 03:44 45.17921 17.58395 36066 ft 441 kts 275°
2026-04-25 03:44 45.18165 17.49728 36068 ft 441 kts 275°
2026-04-25 03:45 45.18403 17.41081 36070 ft 441 kts 275°
2026-04-25 03:45 45.18635 17.32368 36072 ft 441 kts 274°
2026-04-25 03:46 45.18860 17.23698 36070 ft 441 kts 274°
2026-04-25 03:46 45.19079 17.15000 36070 ft 441 kts 274°
2026-04-25 03:47 45.19291 17.06343 36068 ft 441 kts 274°
2026-04-25 03:47 45.19496 16.97665 36068 ft 441 kts 274°
2026-04-25 03:48 45.19695 16.88969 36069 ft 441 kts 274°
2026-04-25 03:48 45.19888 16.80250 36072 ft 441 kts 274°
2026-04-25 03:49 45.20075 16.71569 36070 ft 441 kts 274°
2026-04-25 03:49 45.20281 16.62858 36075 ft 440 kts 275°
2026-04-25 03:50 45.20565 16.54229 36077 ft 440 kts 275°
2026-04-25 03:50 45.20851 16.45575 36072 ft 440 kts 275°
2026-04-25 03:51 45.21120 16.36902 36076 ft 440 kts 274°
2026-04-25 03:51 45.21378 16.28240 36073 ft 440 kts 274°
2026-04-25 03:52 45.21629 16.19547 36077 ft 440 kts 274°
2026-04-25 03:52 45.21873 16.10846 36079 ft 440 kts 274°
2026-04-25 03:53 45.22109 16.02222 36086 ft 440 kts 274°
2026-04-25 03:53 45.22341 15.93547 36082 ft 440 kts 274°
2026-04-25 03:54 45.22565 15.84893 36084 ft 440 kts 274°
2026-04-25 03:54 45.22783 15.76188 36084 ft 440 kts 274°
2026-04-25 03:55 45.22994 15.67530 36080 ft 440 kts 274°
2026-04-25 03:55 45.23199 15.58857 36086 ft 440 kts 274°
2026-04-25 03:56 45.23397 15.50178 36084 ft 440 kts 274°
2026-04-25 03:56 45.23589 15.41506 36080 ft 440 kts 273°
2026-04-25 03:57 45.23775 15.32766 36085 ft 440 kts 273°
2026-04-25 03:57 45.23953 15.24121 36080 ft 440 kts 273°
2026-04-25 03:58 45.24124 15.15432 36086 ft 440 kts 273°
2026-04-25 03:58 45.24288 15.06825 36073 ft 441 kts 273°
2026-04-25 03:59 45.24447 14.98137 36068 ft 441 kts 273°
2026-04-25 03:59 45.24599 14.89466 36052 ft 441 kts 273°
2026-04-25 04:00 45.24721 14.82184 36047 ft 441 kts 273°
2026-04-25 04:00 45.24861 14.73543 36051 ft 441 kts 272°
2026-04-25 04:01 45.24995 14.64837 36050 ft 441 kts 272°
2026-04-25 04:01 45.25122 14.56139 36054 ft 440 kts 272°
2026-04-25 04:02 45.25243 14.47410 36054 ft 440 kts 272°
2026-04-25 04:02 45.25357 14.38700 36048 ft 440 kts 272°
2026-04-25 04:03 45.25464 14.30055 36042 ft 440 kts 272°
2026-04-25 04:03 45.25565 14.21376 36058 ft 440 kts 272°
2026-04-25 04:04 45.25659 14.12671 36053 ft 440 kts 272°
2026-04-25 04:04 45.25744 14.04013 36070 ft 440 kts 272°
2026-04-25 04:05 45.25823 13.95290 36067 ft 441 kts 272°
2026-04-25 04:05 45.25896 13.86625 36058 ft 441 kts 272°
2026-04-25 04:06 45.25965 13.77871 36059 ft 441 kts 272°
2026-04-25 04:06 45.26027 13.69155 36074 ft 442 kts 271°
2026-04-25 04:07 45.26082 13.60402 36078 ft 443 kts 271°
2026-04-25 04:07 45.26131 13.51637 36081 ft 444 kts 271°
2026-04-25 04:08 45.26172 13.42907 36070 ft 443 kts 271°
2026-04-25 04:08 45.26207 13.34136 36069 ft 443 kts 271°
2026-04-25 04:09 45.26236 13.25390 36071 ft 443 kts 271°
2026-04-25 04:09 45.26259 13.16641 36055 ft 443 kts 271°
2026-04-25 04:10 45.26276 13.07933 36074 ft 443 kts 271°
2026-04-25 04:10 45.26289 12.99172 36070 ft 444 kts 271°
2026-04-25 04:11 45.26414 12.85998 36065 ft 444 kts 272°
2026-04-25 04:12 45.26521 12.77248 36046 ft 444 kts 272°
2026-04-25 04:12 45.26617 12.68501 36046 ft 444 kts 272°
2026-04-25 04:13 45.26702 12.59738 36055 ft 445 kts 271°
2026-04-25 04:13 45.26778 12.50916 36053 ft 445 kts 271°
2026-04-25 04:14 45.26845 12.42146 36056 ft 445 kts 271°
2026-04-25 04:14 45.26906 12.33330 36053 ft 446 kts 271°
2026-04-25 04:15 45.26960 12.24535 36052 ft 446 kts 271°
2026-04-25 04:15 45.27007 12.15729 36037 ft 446 kts 271°
2026-04-25 04:16 45.27048 12.06947 36055 ft 446 kts 271°
2026-04-25 04:16 45.27082 11.98111 36054 ft 447 kts 271°
2026-04-25 04:17 45.27109 11.89305 36057 ft 447 kts 271°
2026-04-25 04:17 45.27129 11.80474 36059 ft 447 kts 271°
2026-04-25 04:18 45.27143 11.71671 36061 ft 447 kts 271°
2026-04-25 04:18 45.27150 11.62836 36061 ft 447 kts 271°
2026-04-25 04:19 45.27150 11.53957 36063 ft 447 kts 271°
2026-04-25 04:19 45.27143 11.45194 36047 ft 447 kts 270°
2026-04-25 04:20 45.27129 11.36352 36053 ft 447 kts 270°
2026-04-25 04:20 45.27109 11.27517 36050 ft 448 kts 270°
2026-04-25 04:21 45.27081 11.18674 36046 ft 448 kts 270°
2026-04-25 04:21 45.27047 11.09830 36044 ft 448 kts 270°
2026-04-25 04:22 45.27006 11.00970 36047 ft 448 kts 270°
2026-04-25 04:22 45.26958 10.92105 36048 ft 449 kts 270°
2026-04-25 04:23 45.26904 10.83247 36048 ft 449 kts 270°
2026-04-25 04:23 45.26842 10.74427 36048 ft 449 kts 270°
2026-04-25 04:24 45.26774 10.65510 36045 ft 449 kts 270°
2026-04-25 04:24 45.26698 10.56646 36046 ft 450 kts 270°
2026-04-25 04:25 45.26616 10.47816 36047 ft 450 kts 269°
2026-04-25 04:25 45.26527 10.38882 36046 ft 450 kts 269°
2026-04-25 04:26 45.26430 10.29983 36047 ft 451 kts 269°
2026-04-25 04:26 45.26327 10.21115 36026 ft 451 kts 269°
2026-04-25 04:27 45.26217 10.12179 36031 ft 451 kts 269°
2026-04-25 04:27 45.26100 10.03270 36043 ft 452 kts 269°
2026-04-25 04:28 45.25976 9.94381 36044 ft 452 kts 269°
2026-04-25 04:28 45.25844 9.85447 36049 ft 452 kts 269°
2026-04-25 04:29 45.25706 9.76487 36053 ft 452 kts 269°
2026-04-25 04:29 45.25560 9.67539 36057 ft 453 kts 269°
2026-04-25 04:30 45.25409 9.58668 36051 ft 453 kts 269°
2026-04-25 04:30 45.25250 9.49743 36049 ft 453 kts 268°
2026-04-25 04:31 45.25083 9.40804 36050 ft 453 kts 268°
2026-04-25 04:31 45.24909 9.31837 36047 ft 453 kts 268°
2026-04-25 04:32 45.24730 9.22931 36049 ft 453 kts 268°
2026-04-25 04:32 45.24541 9.13941 36047 ft 454 kts 268°
2026-04-25 04:33 45.24347 9.05015 36050 ft 454 kts 268°
2026-04-25 04:33 45.24179 8.97518 36053 ft 454 kts 268°
2026-04-25 04:34 45.23972 8.88591 36052 ft 454 kts 268°
2026-04-25 04:34 45.23756 8.79587 36053 ft 454 kts 268°
2026-04-25 04:35 45.23535 8.70663 36049 ft 455 kts 268°
2026-04-25 04:35 45.23305 8.61660 36051 ft 455 kts 268°
2026-04-25 04:36 45.23070 8.52702 36050 ft 455 kts 268°
2026-04-25 04:36 45.22826 8.43711 36054 ft 455 kts 268°
2026-04-25 04:37 45.22577 8.34769 36053 ft 455 kts 267°
2026-04-25 04:37 45.22319 8.25787 36058 ft 455 kts 267°
2026-04-25 04:38 45.22054 8.16774 36056 ft 455 kts 267°
2026-04-25 04:38 45.21785 8.07879 36055 ft 456 kts 267°
2026-04-25 04:39 45.21504 7.98821 36052 ft 456 kts 267°
2026-04-25 04:39 45.21218 7.89836 36050 ft 456 kts 267°
2026-04-25 04:40 45.20927 7.80906 36048 ft 456 kts 267°
2026-04-25 04:40 45.20626 7.71889 36047 ft 456 kts 267°
2026-04-25 04:41 45.20320 7.62948 36049 ft 456 kts 266°
2026-04-25 04:41 45.20005 7.53937 36049 ft 457 kts 266°
2026-04-25 04:42 45.19682 7.44905 36050 ft 457 kts 266°
2026-04-25 04:42 45.19519 7.40400 36151 ft 457 kts 266°
2026-04-25 04:42 45.19354 7.35884 36161 ft 458 kts 266°
2026-04-25 04:43 45.19024 7.26893 36164 ft 458 kts 266°
2026-04-25 04:43 45.19017 7.17854 36156 ft 458 kts 276°
2026-04-25 04:44 45.20491 7.09091 36137 ft 458 kts 290°
2026-04-25 04:44 45.22897 7.00717 36121 ft 458 kts 292°
2026-04-25 04:45 45.25287 6.92411 36107 ft 458 kts 292°
2026-04-25 04:45 45.27700 6.83980 36099 ft 458 kts 292°
2026-04-25 04:46 45.30086 6.75615 36107 ft 458 kts 292°
2026-04-25 04:46 45.32475 6.67215 36112 ft 458 kts 292°
2026-04-25 04:47 45.34861 6.58792 36114 ft 459 kts 292°
2026-04-25 04:47 45.37233 6.50395 36115 ft 459 kts 292°
2026-04-25 04:48 45.39409 6.41897 36116 ft 459 kts 285°
2026-04-25 04:48 45.41019 6.33040 36120 ft 459 kts 284°
2026-04-25 04:49 45.42626 6.24312 36121 ft 458 kts 284°
2026-04-25 04:49 45.44236 6.15499 36121 ft 458 kts 284°
2026-04-25 04:50 45.45823 6.06752 36122 ft 458 kts 284°
2026-04-25 04:50 45.47407 5.97971 36124 ft 458 kts 284°
2026-04-25 04:51 45.49046 5.89173 36131 ft 458 kts 285°
2026-04-25 04:51 45.50748 5.80434 36132 ft 458 kts 285°
2026-04-25 04:52 45.52436 5.71664 36133 ft 457 kts 284°
2026-04-25 04:52 45.54108 5.62893 36129 ft 457 kts 284°
2026-04-25 04:53 45.55758 5.54182 36113 ft 456 kts 284°
2026-04-25 04:53 45.57334 5.45384 36107 ft 456 kts 283°
2026-04-25 04:54 45.58809 5.36614 36107 ft 456 kts 283°
2026-04-25 04:54 45.60302 5.27785 36100 ft 456 kts 283°
2026-04-25 04:55 45.61794 5.18979 36100 ft 456 kts 283°
2026-04-25 04:55 45.63283 5.10153 36097 ft 456 kts 283°
2026-04-25 04:56 45.64757 5.01377 36097 ft 456 kts 282°
2026-04-25 04:56 45.65817 4.92445 36095 ft 454 kts 269°
2026-04-25 04:56 45.65569 4.87973 36094 ft 452 kts 258°
2026-04-25 04:57 45.64775 4.83688 36095 ft 449 kts 248°
2026-04-25 04:57 45.62063 4.75684 36093 ft 448 kts 241°
2026-04-25 04:58 45.59232 4.67698 36098 ft 449 kts 242°
2026-04-25 04:58 45.56393 4.59709 36119 ft 449 kts 242°
2026-04-25 04:59 45.53565 4.51787 36132 ft 449 kts 242°
2026-04-25 04:59 45.50714 4.43828 36139 ft 449 kts 242°
2026-04-25 05:00 45.47874 4.35921 36142 ft 449 kts 242°
2026-04-25 05:00 45.45029 4.28024 36138 ft 449 kts 242°
2026-04-25 05:01 45.42169 4.20115 36136 ft 448 kts 243°
2026-04-25 05:01 45.39322 4.12265 36131 ft 447 kts 243°
2026-04-25 05:02 45.36457 4.04384 36134 ft 446 kts 244°
2026-04-25 05:02 45.33598 3.96540 36128 ft 446 kts 244°
2026-04-25 05:03 45.30754 3.88763 36124 ft 445 kts 244°
2026-04-25 05:03 45.27892 3.80955 36118 ft 444 kts 244°
2026-04-25 05:04 45.24886 3.73319 36115 ft 445 kts 238°
2026-04-25 05:04 45.21337 3.66124 36118 ft 446 kts 237°
2026-04-25 05:05 45.17770 3.58895 36122 ft 447 kts 237°
2026-04-25 05:05 45.14210 3.51691 36125 ft 446 kts 237°
2026-04-25 05:06 45.10646 3.44499 36129 ft 446 kts 237°
2026-04-25 05:06 45.07058 3.37278 36132 ft 446 kts 237°
2026-04-25 05:07 45.03505 3.30142 36137 ft 446 kts 237°
2026-04-25 05:07 45.00526 3.24172 36140 ft 445 kts 237°
2026-04-25 05:08 44.96952 3.17026 36143 ft 445 kts 237°
2026-04-25 05:08 44.93367 3.09876 36144 ft 445 kts 237°
2026-04-25 05:09 44.89803 3.02786 36146 ft 445 kts 237°
2026-04-25 05:09 44.86201 2.95639 36147 ft 445 kts 237°
2026-04-25 05:10 44.82699 2.88503 36150 ft 444 kts 240°
2026-04-25 05:10 44.79384 2.81173 36151 ft 444 kts 240°
2026-04-25 05:11 44.76050 2.73865 36157 ft 444 kts 240°
2026-04-25 05:11 44.72683 2.66573 36154 ft 444 kts 239°
2026-04-25 05:12 44.67606 2.55636 36151 ft 444 kts 239°
2026-04-25 05:12 44.64227 2.48380 36152 ft 444 kts 239°
2026-04-25 05:13 44.60839 2.41120 36151 ft 444 kts 239°
2026-04-25 05:13 44.57466 2.33911 36155 ft 444 kts 239°
2026-04-25 05:14 44.54066 2.26665 36156 ft 444 kts 239°
2026-04-25 05:15 44.48978 2.15852 36156 ft 443 kts 239°
2026-04-25 05:15 44.45564 2.08621 36151 ft 443 kts 239°
2026-04-25 05:16 44.42171 2.01450 36148 ft 443 kts 239°
2026-04-25 05:16 44.38752 1.94246 36149 ft 442 kts 239°
2026-04-25 05:17 44.35356 1.87106 36147 ft 442 kts 238°
2026-04-25 05:17 44.31939 1.79940 36148 ft 441 kts 238°
2026-04-25 05:18 44.28537 1.72801 36147 ft 440 kts 239°
2026-04-25 05:18 44.25243 1.65611 36142 ft 439 kts 239°
2026-04-25 05:19 44.21975 1.58456 36139 ft 439 kts 239°
2026-04-25 05:19 44.18675 1.51285 36136 ft 438 kts 239°
2026-04-25 05:20 44.15372 1.44139 36128 ft 437 kts 239°
2026-04-25 05:20 44.12086 1.37047 36129 ft 437 kts 239°
2026-04-25 05:21 44.08776 1.29921 36127 ft 436 kts 239°
2026-04-25 05:21 44.05488 1.22858 36126 ft 436 kts 239°
2026-04-25 05:22 44.02179 1.15769 36125 ft 436 kts 238°
2026-04-25 05:22 43.98881 1.08721 36124 ft 436 kts 238°
2026-04-25 05:23 43.95569 1.01660 36125 ft 436 kts 238°
2026-04-25 05:23 43.92259 0.94618 36130 ft 436 kts 238°
2026-04-25 05:24 43.88871 0.87611 36129 ft 436 kts 234°
2026-04-25 05:24 43.84902 0.81229 36134 ft 437 kts 229°
2026-04-25 05:25 43.80839 0.74962 36138 ft 437 kts 229°
2026-04-25 05:25 43.76808 0.68740 36142 ft 437 kts 229°
2026-04-25 05:26 43.72730 0.62458 36144 ft 437 kts 229°
2026-04-25 05:26 43.68687 0.56246 36151 ft 436 kts 229°
2026-04-25 05:27 43.64620 0.50011 36151 ft 436 kts 229°
2026-04-25 05:27 43.60557 0.43796 36151 ft 436 kts 229°
2026-04-25 05:28 43.56492 0.37592 36152 ft 435 kts 229°
2026-04-25 05:28 43.52532 0.31337 36151 ft 435 kts 233°
2026-04-25 05:29 43.49321 0.24240 36152 ft 433 kts 243°
2026-04-25 05:29 43.46573 0.16877 36160 ft 433 kts 243°
2026-04-25 05:30 43.43786 0.09500 36165 ft 433 kts 243°
2026-04-25 05:30 43.41002 0.02163 36167 ft 433 kts 243°
2026-04-25 05:31 43.38229 -0.05132 36175 ft 429 kts 242°
2026-04-25 05:31 43.35443 -0.12436 36174 ft 431 kts 242°
2026-04-25 05:32 43.32669 -0.19691 36155 ft 430 kts 242°
2026-04-25 05:32 43.29899 -0.26917 36157 ft 430 kts 242°
2026-04-25 05:33 43.27104 -0.34190 36156 ft 431 kts 242°
2026-04-25 05:33 43.24316 -0.41427 36161 ft 430 kts 242°
2026-04-25 05:34 43.21694 -0.48216 36155 ft 431 kts 242°
2026-04-25 05:34 43.18877 -0.55491 36154 ft 431 kts 242°
2026-04-25 05:35 43.16078 -0.62702 36154 ft 430 kts 242°
2026-04-25 05:35 43.13247 -0.69974 36152 ft 431 kts 242°
2026-04-25 05:36 43.10427 -0.77201 36152 ft 430 kts 241°
2026-04-25 05:36 43.07608 -0.84404 36157 ft 431 kts 241°
2026-04-25 05:37 43.04777 -0.91623 36158 ft 430 kts 241°
2026-04-25 05:37 43.01932 -0.98857 36164 ft 431 kts 241°
2026-04-25 05:38 42.99103 -1.06039 36162 ft 431 kts 241°
2026-04-25 05:38 42.96233 -1.13268 36163 ft 431 kts 241°
2026-04-25 05:39 42.93378 -1.20433 36174 ft 431 kts 241°
2026-04-25 05:39 42.90508 -1.27626 36174 ft 431 kts 241°
2026-04-25 05:40 42.87644 -1.34785 36178 ft 431 kts 241°
2026-04-25 05:40 42.84768 -1.41957 36181 ft 431 kts 240°
2026-04-25 05:41 42.81889 -1.49118 36188 ft 431 kts 240°
2026-04-25 05:41 42.79475 -1.55112 36190 ft 431 kts 240°
2026-04-25 05:42 42.76897 -1.62328 36028 ft 431 kts 251°
2026-04-25 05:42 42.76230 -1.66328 35778 ft 432 kts 262°
2026-04-25 05:42 42.76109 -1.70390 35537 ft 434 kts 271°
2026-04-25 05:42 42.76533 -1.74504 35280 ft 437 kts 282°
2026-04-25 05:43 42.77477 -1.78443 34863 ft 441 kts 291°
2026-04-25 05:43 42.78922 -1.82118 34031 ft 447 kts 300°
2026-04-25 05:43 42.80628 -1.85711 32871 ft 454 kts 301°
2026-04-25 05:43 42.82354 -1.89334 32004 ft 453 kts 301°
2026-04-25 05:44 42.84059 -1.92936 31074 ft 453 kts 301°
2026-04-25 05:44 42.85745 -1.96519 30468 ft 448 kts 301°
2026-04-25 05:44 42.87416 -2.00084 29752 ft 443 kts 301°
2026-04-25 05:44 42.89067 -2.03613 29062 ft 437 kts 301°
2026-04-25 05:45 42.90705 -2.07122 28383 ft 431 kts 301°
2026-04-25 05:45 42.92295 -2.10532 27715 ft 426 kts 301°
2026-04-25 05:45 42.93889 -2.13955 27036 ft 421 kts 301°
2026-04-25 05:45 42.95444 -2.17300 26390 ft 416 kts 301°
2026-04-25 05:46 42.96971 -2.20591 25742 ft 412 kts 301°
2026-04-25 05:46 42.98509 -2.23906 25077 ft 409 kts 301°
2026-04-25 05:46 43.00032 -2.27170 24390 ft 407 kts 301°
2026-04-25 05:46 43.01554 -2.30407 23725 ft 405 kts 301°
2026-04-25 05:47 43.03065 -2.33619 23078 ft 399 kts 301°
2026-04-25 05:47 43.04550 -2.36781 22423 ft 394 kts 301°
2026-04-25 05:47 43.06017 -2.39911 21780 ft 389 kts 301°
2026-04-25 05:47 43.07485 -2.43048 21122 ft 385 kts 301°
2026-04-25 05:48 43.08909 -2.46097 20503 ft 381 kts 301°
2026-04-25 05:48 43.10337 -2.49158 19874 ft 377 kts 301°
2026-04-25 05:48 43.11749 -2.52187 19227 ft 374 kts 301°
2026-04-25 05:48 43.13138 -2.55172 18597 ft 371 kts 302°
2026-04-25 05:49 43.14506 -2.58113 17918 ft 368 kts 302°
2026-04-25 05:49 43.15876 -2.61060 17315 ft 362 kts 302°
2026-04-25 05:49 43.17214 -2.63942 16700 ft 357 kts 302°
2026-04-25 05:49 43.18532 -2.66782 16100 ft 354 kts 302°
2026-04-25 05:50 43.19854 -2.69636 15493 ft 351 kts 302°
2026-04-25 05:50 43.21163 -2.72462 14880 ft 348 kts 302°
2026-04-25 05:50 43.22448 -2.75240 14268 ft 347 kts 302°
2026-04-25 05:50 43.23743 -2.78043 13654 ft 344 kts 302°
2026-04-25 05:51 43.25006 -2.80778 13071 ft 339 kts 302°
2026-04-25 05:51 43.26266 -2.83509 12507 ft 336 kts 302°
2026-04-25 05:51 43.27504 -2.86193 11937 ft 332 kts 302°
2026-04-25 05:51 43.28733 -2.88863 11365 ft 330 kts 302°
2026-04-25 05:52 43.29787 -2.91650 10796 ft 326 kts 289°
2026-04-25 05:52 43.30284 -2.94640 10359 ft 320 kts 274°
2026-04-25 05:52 43.30265 -2.97627 10216 ft 303 kts 267°
2026-04-25 05:52 43.30175 -3.00449 9993 ft 292 kts 267°
2026-04-25 05:53 43.30099 -3.03200 9578 ft 287 kts 268°
2026-04-25 05:53 43.30027 -3.05893 9392 ft 280 kts 268°
2026-04-25 05:53 43.29951 -3.08642 9075 ft 290 kts 268°
2026-04-25 05:53 43.29871 -3.11414 8753 ft 288 kts 268°
2026-04-25 05:54 43.29792 -3.14131 8409 ft 283 kts 268°
2026-04-25 05:54 43.29712 -3.16809 7961 ft 281 kts 268°
2026-04-25 05:54 43.29551 -3.22133 7059 ft 278 kts 268°
2026-04-25 05:55 43.29470 -3.24780 6624 ft 277 kts 268°
2026-04-25 05:55 43.29389 -3.27419 6182 ft 275 kts 268°
2026-04-25 05:55 43.29322 -3.30025 5759 ft 272 kts 271°
2026-04-25 05:55 43.29545 -3.32567 5368 ft 268 kts 284°
2026-04-25 05:56 43.30136 -3.34965 5136 ft 258 kts 292°
2026-04-25 05:56 43.30765 -3.37184 5097 ft 242 kts 292°
2026-04-25 05:56 43.31385 -3.39237 5095 ft 227 kts 293°
2026-04-25 05:56 43.31944 -3.41206 5094 ft 214 kts 291°
2026-04-25 05:57 43.32436 -3.43059 5092 ft 202 kts 291°
2026-04-25 05:57 43.32904 -3.44842 5051 ft 193 kts 290°
2026-04-25 05:57 43.33349 -3.46539 4984 ft 184 kts 291°
2026-04-25 05:57 43.33771 -3.48145 4905 ft 176 kts 291°
2026-04-25 05:58 43.34185 -3.49718 4698 ft 176 kts 291°
2026-04-25 05:58 43.34601 -3.51303 4480 ft 175 kts 290°
2026-04-25 05:58 43.35011 -3.52865 4259 ft 175 kts 290°
2026-04-25 05:58 43.35420 -3.54419 4046 ft 167 kts 290°
2026-04-25 05:59 43.35804 -3.55876 3831 ft 157 kts 290°
2026-04-25 05:59 43.36167 -3.57261 3631 ft 152 kts 290°
2026-04-25 05:59 43.36519 -3.58592 3435 ft 144 kts 290°
2026-04-25 05:59 43.36852 -3.59857 3233 ft 136 kts 290°
2026-04-25 06:00 43.37167 -3.61051 3055 ft 131 kts 290°
2026-04-25 06:00 43.37467 -3.62187 2881 ft 124 kts 289°
2026-04-25 06:00 43.37758 -3.63292 2731 ft 119 kts 289°
2026-04-25 06:00 43.38030 -3.64325 2571 ft 118 kts 289°
2026-04-25 06:01 43.38309 -3.65381 2406 ft 116 kts 289°
2026-04-25 06:01 43.38587 -3.66433 2254 ft 117 kts 289°
2026-04-25 06:01 43.38865 -3.67487 2088 ft 116 kts 288°
2026-04-25 06:01 43.39145 -3.68544 1932 ft 118 kts 288°
2026-04-25 06:02 43.39424 -3.69599 1771 ft 118 kts 289°
2026-04-25 06:02 43.39705 -3.70661 1614 ft 118 kts 288°
2026-04-25 06:02 43.39985 -3.71721 1448 ft 118 kts 288°
2026-04-25 06:02 43.40267 -3.72786 1282 ft 118 kts 289°
2026-04-25 06:03 43.40552 -3.73861 1113 ft 120 kts 289°
2026-04-25 06:03 43.40833 -3.74922 954 ft 120 kts 288°
2026-04-25 06:03 43.41108 -3.75990 792 ft 118 kts 288°
2026-04-25 06:03 43.41387 -3.77064 581 ft 119 kts 288°
2026-04-25 06:04 43.41676 -3.78118 427 ft 119 kts 286°
2026-04-25 06:04 43.41953 -3.79185 294 ft 117 kts 287°
2026-04-25 06:04 43.42229 -3.80236 140 ft 117 kts 287°
2026-04-25 06:04 43.42512 -3.81276 26 ft 109 kts 290°
2026-04-25 06:05 43.42719 -3.82042 19 ft 60 kts 289°
2026-04-25 06:05 43.42831 -3.82424 20 ft 40 kts 296°
2026-04-25 06:05 43.42895 -3.82677 23 ft 21 kts 296°
2026-04-25 06:05 43.42957 -3.82886 19 ft 6 kts 256°
2026-04-25 06:06 43.42930 -3.82972 21 ft 21 kts 246°
2026-04-25 06:06 43.42826 -3.83020 21 ft 19 kts 146°
2026-04-25 06:06 43.42763 -3.82806 20 ft 32 kts 109°
2026-04-25 06:06 43.42703 -3.82627 20 ft 23 kts 114°
2026-04-25 06:07 43.42642 -3.82421 22 ft 24 kts 120°
2026-04-25 06:07 43.42622 -3.82356 20 ft 1 kts 108°
2026-04-25 06:07 43.42600 -3.82313 20 ft 8 kts 156°
2026-04-25 06:07 43.42551 -3.82317 20 ft 9 kts 195°
2026-04-25 06:08 43.42475 -3.82355 20 ft 11 kts 200°
2026-04-25 06:08 43.42470 -3.82358 20 ft 2 kts 200°
2026-04-25 06:08 43.42460 -3.82383 20 ft 4 kts 252°
2026-04-25 06:08 43.42450 -3.82443 20 ft 0 kts 250°
2026-04-25 06:09 43.42441 -3.82468 21 ft 6 kts 243°
2026-04-25 06:09 43.42438 -3.82476 22 ft 0 kts 242°